When you browse on this site, cookies collect data to enhance your experience and personalize the content and advertising you see.
Visit our Privacy Policy to learn more. By continuing to use the site, you agree to this use of cookies and data.

Hourly Weather Lunin

Today, 12 July, Sunday

Time Temperature Precipitation Wind Pressure Humidity
00:00 +15°C° 0.1 mm 4 mps 751 mmHg 83%
01:00 +14°C° 0.1 mm 4 mps 751 mmHg 82%
02:00 +14°C° 0.1 mm 4 mps 751 mmHg 82%
03:00 +14°C° 0.1 mm 5 mps 751 mmHg 84%
04:00 +13°C° 0.1 mm 5 mps 751 mmHg 85%
05:00 +13°C° 0.1 mm 5 mps 751 mmHg 87%
06:00 +12°C° 0.5 mm 5 mps 751 mmHg 89%
07:00 +10°C° 0.5 mm 5 mps 751 mmHg 92%
08:00 +10°C° 0.5 mm 5 mps 752 mmHg 94%
09:00 +10°C° 1.1 mm 5 mps 752 mmHg 95%
10:00 +9°C° 1.1 mm 5 mps 752 mmHg 95%
11:00 +9°C° 1.1 mm 5 mps 752 mmHg 95%
12:00 +10°C° 2.3 mm 4 mps 752 mmHg 95%
13:00 +10°C° 2.3 mm 4 mps 753 mmHg 95%
14:00 +11°C° 2.3 mm 3 mps 753 mmHg 95%
15:00 +12°C° 0.4 mm 3 mps 753 mmHg 90%
16:00 +13°C° 0.4 mm 3 mps 753 mmHg 86%
17:00 +16°C° 0.4 mm 3 mps 752 mmHg 81%
18:00 +15°C° 0 mm 2 mps 752 mmHg 83%
19:00 +14°C° 0 mm 2 mps 752 mmHg 85%
20:00 +14°C° 0 mm 1 mps 752 mmHg 87%
21:00 +13°C° 0 mm 1 mps 752 mmHg 89%
22:00 +12°C° 0 mm 2 mps 752 mmHg 91%
23:00 +12°C° 0 mm 2 mps 752 mmHg 93%

Tomorrow, 13 July, Monday

Time Temperature Precipitation Wind Pressure Humidity
00:00 +10°C° 0 mm 2 mps 752 mmHg 94%
01:00 +10°C° 0 mm 3 mps 752 mmHg 95%
02:00 +10°C° 0 mm 3 mps 752 mmHg 95%
03:00 +9°C° 0 mm 3 mps 752 mmHg 95%
04:00 +9°C° 0 mm 3 mps 752 mmHg 95%
05:00 +9°C° 0 mm 3 mps 752 mmHg 95%
06:00 +10°C° 0 mm 3 mps 752 mmHg 88%
07:00 +12°C° 0 mm 4 mps 752 mmHg 82%
08:00 +14°C° 0 mm 4 mps 752 mmHg 76%
09:00 +15°C° 0 mm 4 mps 752 mmHg 72%
10:00 +17°C° 0 mm 4 mps 752 mmHg 68%
11:00 +18°C° 0 mm 4 mps 751 mmHg 64%
12:00 +18°C° 0 mm 4 mps 751 mmHg 63%
13:00 +19°C° 0 mm 4 mps 751 mmHg 63%
14:00 +19°C° 0 mm 4 mps 751 mmHg 63%
15:00 +19°C° 0.1 mm 4 mps 751 mmHg 64%
16:00 +19°C° 0.1 mm 4 mps 750 mmHg 66%
17:00 +19°C° 0.1 mm 3 mps 750 mmHg 67%
18:00 +18°C° 0 mm 3 mps 750 mmHg 73%
19:00 +16°C° 0 mm 2 mps 750 mmHg 78%
20:00 +15°C° 0 mm 2 mps 750 mmHg 83%
21:00 +14°C° 0 mm 2 mps 750 mmHg 87%
22:00 +13°C° 0 mm 2 mps 750 mmHg 90%
23:00 +13°C° 0 mm 2 mps 750 mmHg 93%

Day after tomorrow, 14 July, Tuesday

Time Temperature Precipitation Wind Pressure Humidity
00:00 +12°C° 0 mm 2 mps 750 mmHg 94%
01:00 +12°C° 0 mm 2 mps 750 mmHg 95%
02:00 +10°C° 0 mm 2 mps 750 mmHg 96%
03:00 +10°C° 0 mm 2 mps 750 mmHg 96%
04:00 +10°C° 0 mm 2 mps 750 mmHg 96%
05:00 +10°C° 0 mm 2 mps 750 mmHg 97%
06:00 +13°C° 0 mm 2 mps 750 mmHg 92%
07:00 +14°C° 0 mm 2 mps 750 mmHg 86%
08:00 +16°C° 0 mm 2 mps 750 mmHg 81%
09:00 +18°C° 0 mm 3 mps 750 mmHg 76%
10:00 +19°C° 0 mm 3 mps 750 mmHg 71%
11:00 +20°C° 0 mm 3 mps 750 mmHg 65%
12:00 +20°C° 0.2 mm 3 mps 750 mmHg 66%
13:00 +21°C° 0.2 mm 3 mps 750 mmHg 66%
14:00 +21°C° 0.2 mm 3 mps 750 mmHg 66%
15:00 +21°C° 0.2 mm 3 mps 750 mmHg 67%
16:00 +21°C° 0.2 mm 3 mps 749 mmHg 67%
17:00 +21°C° 0.2 mm 3 mps 749 mmHg 67%
18:00 +20°C° 0.1 mm 2 mps 749 mmHg 73%
19:00 +18°C° 0.1 mm 2 mps 749 mmHg 79%
20:00 +17°C° 0.1 mm 2 mps 750 mmHg 85%
21:00 +16°C° 0 mm 2 mps 750 mmHg 87%
22:00 +15°C° 0 mm 2 mps 750 mmHg 90%
23:00 +14°C° 0 mm 2 mps 750 mmHg 93%

15 July, Wednesday

Time Temperature Precipitation Wind Pressure Humidity
00:00 +14°C° 0 mm 2 mps 750 mmHg 93%
01:00 +13°C° 0 mm 2 mps 750 mmHg 93%
02:00 +13°C° 0 mm 2 mps 750 mmHg 94%
03:00 +13°C° 0 mm 2 mps 750 mmHg 94%
04:00 +12°C° 0 mm 2 mps 750 mmHg 94%
05:00 +12°C° 0 mm 2 mps 750 mmHg 94%
06:00 +14°C° 0 mm 2 mps 750 mmHg 89%
07:00 +16°C° 0 mm 1 mps 750 mmHg 83%
08:00 +19°C° 0 mm 1 mps 750 mmHg 78%
09:00 +20°C° 0 mm 1 mps 750 mmHg 73%
10:00 +22°C° 0 mm 1 mps 750 mmHg 68%
11:00 +23°C° 0 mm 1 mps 750 mmHg 63%
12:00 +24°C° 0.2 mm 1 mps 750 mmHg 61%
13:00 +24°C° 0.2 mm 1 mps 749 mmHg 60%
14:00 +24°C° 0.2 mm 1 mps 749 mmHg 58%
15:00 +24°C° 0.7 mm 1 mps 749 mmHg 61%
16:00 +24°C° 0.7 mm 1 mps 749 mmHg 65%
17:00 +23°C° 0.7 mm 1 mps 749 mmHg 68%
18:00 +21°C° 0.2 mm 2 mps 749 mmHg 73%
19:00 +19°C° 0.2 mm 2 mps 749 mmHg 78%
20:00 +18°C° 0.2 mm 2 mps 748 mmHg 82%
21:00 +17°C° 0 mm 2 mps 749 mmHg 83%
22:00 +16°C° 0 mm 2 mps 749 mmHg 84%
23:00 +15°C° 0 mm 2 mps 749 mmHg 85%

16 July, Thursday

Time Temperature Precipitation Wind Pressure Humidity
00:00 +14°C° 0 mm 2 mps 748 mmHg 86%
01:00 +14°C° 0 mm 1 mps 748 mmHg 86%
02:00 +13°C° 0 mm 1 mps 748 mmHg 86%
03:00 +13°C° 0 mm 1 mps 748 mmHg 87%
04:00 +13°C° 0 mm 1 mps 748 mmHg 88%
05:00 +13°C° 0 mm 1 mps 748 mmHg 89%
06:00 +15°C° 0 mm 1 mps 748 mmHg 85%
07:00 +16°C° 0 mm 1 mps 748 mmHg 81%
08:00 +19°C° 0 mm 1 mps 748 mmHg 76%
09:00 +19°C° 0 mm 2 mps 747 mmHg 71%
10:00 +21°C° 0 mm 2 mps 747 mmHg 65%
11:00 +23°C° 0 mm 2 mps 747 mmHg 60%
12:00 +24°C° 0 mm 2 mps 747 mmHg 57%
13:00 +24°C° 0 mm 2 mps 746 mmHg 55%
14:00 +25°C° 0 mm 2 mps 746 mmHg 53%
15:00 +24°C° 0 mm 1 mps 746 mmHg 55%
16:00 +24°C° 0 mm 1 mps 745 mmHg 57%
17:00 +24°C° 0 mm 1 mps 745 mmHg 58%
18:00 +23°C° 0 mm 1 mps 745 mmHg 64%
19:00 +21°C° 0 mm 1 mps 745 mmHg 69%
20:00 +20°C° 0 mm 1 mps 744 mmHg 74%
21:00 +19°C° 0 mm 1 mps 744 mmHg 73%
22:00 +18°C° 0 mm 1 mps 744 mmHg 73%
23:00 +17°C° 0 mm 2 mps 744 mmHg 72%

17 July, Friday

Time Temperature Precipitation Wind Pressure Humidity
00:00 +18°C° 0.1 mm 1 mps 744 mmHg 75%
01:00 +16°C° 0.1 mm 1 mps 744 mmHg 77%
02:00 +16°C° 0.1 mm 1 mps 744 mmHg 80%
03:00 +16°C° 0.6 mm 1 mps 744 mmHg 84%
04:00 +16°C° 0.6 mm 2 mps 744 mmHg 88%
05:00 +16°C° 0.6 mm 2 mps 743 mmHg 93%
06:00 +16°C° 1 mm 3 mps 743 mmHg 94%
07:00 +16°C° 1 mm 3 mps 743 mmHg 95%
08:00 +14°C° 1 mm 3 mps 743 mmHg 97%
09:00 +16°C° 0.7 mm 3 mps 744 mmHg 95%
10:00 +16°C° 0.7 mm 3 mps 744 mmHg 94%
11:00 +16°C° 0.7 mm 3 mps 744 mmHg 93%
12:00 +17°C° 0.4 mm 3 mps 744 mmHg 88%
13:00 +18°C° 0.4 mm 3 mps 744 mmHg 83%
14:00 +19°C° 0.4 mm 3 mps 744 mmHg 78%
15:00 +20°C° 0.4 mm 3 mps 744 mmHg 77%
16:00 +20°C° 0.4 mm 3 mps 744 mmHg 77%
17:00 +20°C° 0.4 mm 3 mps 744 mmHg 76%
18:00 +19°C° 0.2 mm 2 mps 744 mmHg 80%
19:00 +17°C° 0.2 mm 2 mps 744 mmHg 85%
20:00 +16°C° 0.2 mm 2 mps 744 mmHg 89%
21:00 +15°C° 0 mm 2 mps 745 mmHg 90%
22:00 +14°C° 0 mm 2 mps 745 mmHg 92%
23:00 +14°C° 0 mm 2 mps 745 mmHg 93%
Show more